Tracking 22881 objects as of 19-Apr-2021
HD Live streaming from Space Station
objects crossing your sky now

METEOR 1-26

Track METEOR 1-26 now!
10-day predictions
METEOR 1-26 is classified as:


NORAD ID: 9481
Int'l Code: 1976-102A
Perigee: 850.7 km
Apogee: 883.4 km
Inclination: 81.2 °
Period: 102.1 minutes
Semi major axis: 7238 km
RCS: 4.3206 m2 (large)
Launch date: October 15, 1976
Source: Commonwealth of Independent States (former USSR) (CIS)
Launch site: PLESETSK MISSILE AND SPACE COMPLEX (PKMTR)
aabbcc
Your satellite tracking list
Your tracking list is empty




NASA's NSSDC Master Catalog

Two Line Element Set (TLE):
1 09481U 76102A   21108.88147709  .00000067  00000-0  30968-4 0  9997
2 09481  81.2166  84.9584 0022598 194.0393 166.0152 14.09836199287986
Source of the keplerian elements: AFSPC